Regional Weather Roundup
Issued by NWS Portland, ME

Current Version | Previous Version | Text Only | Print | Product List | Glossary Off
Versions: 1 2 3 4 5 6 7 8 9 10 11 12 13 14 15 16 17 18 19 20 21 22 23 24 25 26 27 28 29 30 31 32 33 34 35 36 37 38 39 40 41 42 43 44 45 46 47 48 49 50
000 ASUS41 KGYX 291605 RWRGYX WEATHER ROUNDUP FOR MAINE AND NEW HAMPSHIRE NATIONAL WEATHER SERVICE GRAY ME 1200 PM EDT WED MAR 29 2017 MEZ002-005-006-010-012-015-018-020-021-024-026-027-029-291700- MAINE CITY SKY/WX TMP DP RH WIND PRES REMARKS PORTLAND PTSUNNY 43 35 73 VRB6 30.02F SANFORD CLOUDY 43 30 60 NW12 30.01F BAR HARBOR LGT RAIN 37 33 85 N8 29.98F WISCASSET CLOUDY 42 32 67 VRB6 30.02S ROCKLAND CLOUDY 40 32 73 VRB6 29.99S FRYEBURG CLOUDY 41 26 55 N12 30.01F LEWISTONAUBURN CLOUDY 41 29 62 NW13 30.01S AUGUSTA CLOUDY 39 29 67 NW14 30.00F WATERVILLE CLOUDY 39 30 70 N9 29.97F BANGOR CLOUDY 36 31 82 N13 30.00F GREENVILLE N/A 32 29 88 N9 29.95S MILLINOCKET CLOUDY 36 31 82 VRB6 30.01F HOULTON CLOUDY 33 29 85 N9 29.98F PRESQUE ISLE CLOUDY 32 28 85 N10 30.02S FRENCHVILLE CLOUDY 30 24 78 N6 29.99S CARIBOU CLOUDY 31 25 78 N7 30.00S $$ NHZ002-005-008-009-011-012-014-291700- NEW HAMPSHIRE CITY SKY/WX TMP DP RH WIND PRES REMARKS PORTSMOUTH CLOUDY 43 34 70 N3 30.00F ROCHESTER CLOUDY 43 31 62 N10 29.99F NASHUA CLOUDY 45 31 58 NW16 30.03F MANCHESTER CLOUDY 45 29 53 N17G23 30.01F CONCORD PTSUNNY 46 32 58 NW18 30.03S LACONIA PTSUNNY 43 27 53 NW15G21 30.02F PLYMOUTH PTSUNNY 39 28 66 W10G18 30.05R BERLIN CLOUDY 36 23 59 NW10G17 30.02F WHITEFIELD CLOUDY 36 25 64 NW8 30.05F JAFFREY CLOUDY 41 28 60 N9G22 30.03S KEENE CLOUDY 41 31 67 NW10G21 30.07R LEBANON CLOUDY 39 27 62 N14 30.08R MT WASHINGTON FOG 16 16 100 NW35 N/A VSB 0 WCI -6 $$ VTZ005-007-008-291700- VERMONT CITY SKY/WX TMP DP RH WIND PRES REMARKS ST JOHNSBURY N/A 37 24 59 MISG 30.07S MONTPELIER CLOUDY 34 26 72 NW8 30.12S BURLINGTON CLOUDY 38 27 64 NW13 30.14S $$ MAZ007-012-024-CTZ003-RIZ002-NYZ038-NYZ072-291700- SOUTHERN NEW ENGLAND AND NY CITY SKY/WX TMP DP RH WIND PRES REMARKS BOSTON LGT RAIN 43 37 79 N8 30.03F WORCESTER CLOUDY 42 28 57 NW14 30.01S NANTUCKET CLOUDY 43 37 79 N20 29.96R PROVIDENCE PTSUNNY 45 36 70 N20 30.03R HARTFORD MOSUNNY 51 33 50 N17 30.05F ALBANY PTSUNNY 44 36 73 NE6 30.15S NEW YORK CITY MOSUNNY 51 36 56 N13 30.07F $$ ANZ081-ANZ082-ANZ150-NHZ014-MEZ023>029-291700- COASTAL MARINE OBSERVATIONS STATION/POSITION TIME TEMP WIND PRES WAVE AIR SEA DIR/SP/G HT/PER (UTC) (F) (DEG/KT/KT) (MB) (FT/S) MOUNT DESERT ROC 1600 35 1014.8S MATINICUS ROCK 1500 36 360/ 16/ 17 1014.8R ISLE OF SHOALS 1500 39 10/ 10/ 11 1016.7R JEFFREYS LEDGE 1506 40 N/A 5/ 5 CASHES LEDGE BUO 1450 39 40 1014.7 5/ 5 GEORGES BANK BUO 1450 38 40 1006.0 7/ 6 $$ .............KEY.............. WCI - WIND CHILL TC - TEMPERATURE IN CELSIUS VSB - VISIBILITY IN MILES HX - HEAT INDEX FAIR- INDICATES FEW OR NO CLOUDS BELOW 12,000 FT, WITH NO SIGNIFICANT WEATHER AND/OR OBSTRUCTIONS TO VISIBILITY.

USA.gov is the U.S. government's official web portal to all federal, state and local government web resources and services.